This is the latest recevied weather packets stored in our database for station/object KJ6LNH-1. If no packets are shown the sender has not sent any weather packets the latest 10 day(s).
| Time | Temp. | Humidity | Pressure | Rain* | Wind** | Luminosity | Snow |
|---|---|---|---|---|---|---|---|
| 1778121308 | 17.22° C | 75% | 1016.3 hPa | 0 mm | - | - | - |
| 1778121008 | 17.78° C | 74% | 1016.2 hPa | 0 mm | - | - | - |
| 1778120708 | 17.78° C | 73% | 1016.1 hPa | 0 mm | - | - | - |
| 1778120409 | 18.33° C | 72% | 1016 hPa | 0 mm | - | - | - |
| 1778120107 | 18.89° C | 71% | 1016 hPa | 0 mm | - | - | - |
| 1778119807 | 18.89° C | 70% | 1016 hPa | 0 mm | - | - | - |
| 1778119510 | 19.44° C | 68% | 1016 hPa | 0 mm | - | - | - |
| 1778119208 | 20° C | 66% | 1016 hPa | 0 mm | - | - | - |
| 1778118907 | 20.56° C | 64% | 1016 hPa | 0 mm | - | - | - |
| 1778118610 | 21.11° C | 63% | 1016 hPa | 0 mm | - | - | - |
| 1778118008 | 22.22° C | 58% | 1015.9 hPa | 0 mm | - | - | - |
| 1778117407 | 22.22° C | 58% | 1015.9 hPa | 0 mm | - | - | - |
| 1778116508 | 23.33° C | 56% | 1016 hPa | 0 mm | - | - | - |
| 1778116210 | 23.33° C | 56% | 1016 hPa | 0 mm | - | - | - |
| 1778115917 | 23.33° C | 55% | 1016 hPa | 0 mm | - | - | - |
| 1778115308 | 23.89° C | 54% | 1016 hPa | 0 mm | - | - | - |
| 1778114408 | 24.44° C | 51% | 1016 hPa | 0 mm | - | - | - |
| 1778114108 | 25.56° C | 48% | 1016 hPa | 0 mm | - | - | - |
| 1778113807 | 26.11° C | 47% | 1016 hPa | 0 mm | - | - | - |
| 1778112908 | 26.67° C | 44% | 1016.1 hPa | 0 mm | - | - | - |
| 1778112611 | 26.11° C | 46% | 1016.1 hPa | 0 mm | - | - | - |
| 1778112008 | 26.67° C | 44% | 1016.1 hPa | 0 mm | - | - | - |
| 1778111707 | 26.67° C | 44% | 1016.1 hPa | 0 mm | - | - | - |
| 1778111408 | 26.67° C | 44% | 1016.2 hPa | 0 mm | - | - | - |
| 1778111107 | 26.11° C | 44% | 1016.2 hPa | 0 mm | - | - | - |
* Rain latest hour (hover to see other rain measurements)
** Current wind speed in m/s (hover to see current wind gust speed)